Weather in Irshava

Ukraine / Zakarpattia District     48°19′01″N   23°02′14″E
temp.,
°C
wind,
m/s
gust,
m/s
humid.,
%
clouds,
%
prec.,
mm/h
press.,
hPa
HPBL,
m
7 may, fri
fri700:00+6ese228944 0.0 101417
03:00+5ese2290100 0.0 101318
06:00+7e3479100 0.0 1010114
09:00+10se1374100 0.1 1010212
12:00+8se2595100 2.9 1010321
15:00+10sse3596100 5.8 1009460
18:00+11s3492100 3.3 1009437
21:00+9sse2398100 5.8 100985
8 may, sat
sat800:00+8ssw3799100 1.1 1011447
03:00+7nnw61185100 1.8 1014756
06:00+3nnw11915 0.3 101714
09:00+7nw36731 0.3 1020704
12:00+10nw695577 0.0 10211807
15:00+12wnw575085 0.1 10212155
18:00+12wsw445815 0.0 10211142
21:00+7ssw018224 0.5 102210
9 may, sun
sun900:00+5ene22865 0.1 102413
03:00+3ene2289100 0.1 102515
06:00+3ene22895 0.0 102523
09:00+8se237678 0.0 1027283
12:00+13sse23585 0.0 1026967
15:00+16s33525 0.0 10251550
18:00+16sse23545 0.0 10231200
21:00+10ene22715 0.0 102311
10 may, mon
mon1000:00+8ene22775 0.0 102318
03:00+7ene32795 0.0 102326
06:00+6e22800 0.0 102321
09:00+12e23640 0.0 1023203
12:00+18se24540 0.0 1022628
15:00+20sse34520 0.0 10201019
18:00+20s24590 0.0 1019901
21:00+14ne11750 0.0 101911
11 may, tue
tue1100:00+12ene22840 0.0 101914
03:00+11ene22870 0.0 101917
06:00+10ene22840 0.0 101817
09:00+16e22690 0.0 1018188
12:00+20sse23560 0.0 1017747
15:00+22s23550 0.0 10161010
18:00+22ssw22600 0.0 1014950
21:00+17ne01800 0.0 101311